Regional Weather Roundup
Issued by NWS

Home | Current Version | Previous Version | Graphics & Text | Print | Product List | Glossary On
Versions: 1 2 3 4 5 6 7 8 9 10 11 12 13 14 15 16 17 18 19 20 21 22 23 24 25 26 27 28 29 30 31 32 33 34 35 36 37 38 39 40 41 42 43 44 45 46 47 48 49 50
000
ASUS43 KLOT 052108
RWRIL

ILLINOIS REGIONAL WEATHER ROUNDUP
NATIONAL WEATHER SERVICE CHICAGO/ROMEOVILLE IL
300 PM CST MON DEC 05 2016

NOTE: "FAIR" INDICATES FEW OR NO CLOUDS BELOW 12,000 FEET WITH NO
SIGNIFICANT WEATHER AND/OR OBSTRUCTIONS TO VISIBILITY.

* THESE STATIONS ARE NOT UNDER NWS QUALITY CONTROL. THEY ALSO MAY NOT
  REPORT WEATHER SUCH AS PRECIPITATION OR FOG.

ILZ001-002-007-009-015-016-024-052200-
NORTHWEST ILLINOIS

CITY           SKY/WX    TMP DP  RH WIND       PRES   REMARKS
MOLINE         CLOUDY    36  32  85 SE10      29.92F FOG     WCI  28
STERLING*      CLOUDY    35  32  88 SE6       29.96F WCI  30
SAVANNA*       CLOUDY    34  32  93 S10       29.94S FOG     WCI  26
$$

ILZ003-004-008-010-011-017-018-052200-
NORTH CENTRAL ILLINOIS

CITY           SKY/WX    TMP DP  RH WIND       PRES   REMARKS
ROCKFORD       CLOUDY    33  31  92 S13       29.99F FOG     WCI  24
FREEPORT*      CLOUDY    32  32 100 S15       29.97S FOG     WCI  22
ROCHELLE*      CLOUDY    32  32  99 S10       29.99S FOG     WCI  24
DE KALB*       FOG       32  31  98 S10       29.99S VSB 1/4 WCI  23
$$

ILZ005-006-012>014-019>023-052200-
NORTHEAST ILLINOIS

CITY           SKY/WX    TMP DP  RH WIND       PRES   REMARKS
CHICAGO-OHARE  CLOUDY    32  30  92 S9        30.00S FOG     WCI  24
CHICAGO-MIDWAY CLOUDY    34  30  85 S10G20    30.01F FOG     WCI  26
AURORA         CLOUDY    33  31  92 S12       30.00S FOG     WCI  24
LANSING*       CLOUDY    32  32 100 S9        30.02F WCI  24
JOLIET*        CLOUDY    34  33  95 S7        30.02R WCI  28
WAUKEGAN       CLOUDY    33  31  92 S9        30.00R FOG     WCI  25
DUPAGE AIRPORT CLOUDY    32  30  92 S9        29.99S FOG     WCI  24
KANKAKEE*      CLOUDY    33  31  94 CALM      30.02S
WHEELING       CLOUDY    32  30  92 S7        30.02R WCI  26
MORRIS*        CLOUDY    32  31  95 SE8       30.00S FOG     WCI  25
ROMEOVILLE*    CLOUDY    32  32 100 S9        30.01S FOG     WCI  24
NORTHERLY ISL    N/A     33  31  92 S9          N/A  WCI  25
$$

LMZ740>746-052200-
SOUTHERN LAKE MICHIGAN

STATION/POSITION SKY/WX   TEMP    WIND        PRES    VSBY  WAVE
                          AIR SEA DIR/SP/G                  HT/PER
                          (F)     (DEG/KT/KT) (MB)    (MI)  (FT/S)
HARRISON CRIB              34     190/ 18/ 20   N/A
BURNHAM HARBOR             33     180/ 10/ 13   N/A
CALUMET HARBOR             33     190/  8/ 15 1015.8F
BURNS HARBOR               33     200/ 14/ 16 1017.3S
$$

ILZ025>027-034>036-040-047-049-050-058-095>099-052200-
WEST-CENTRAL ILLINOIS

CITY           SKY/WX    TMP DP  RH WIND       PRES   REMARKS
QUINCY         PTSUNNY   39  37  92 SE12      29.89F FOG     WCI  32
GALESBURG*     CLOUDY    35  34  94 SE7       29.92F WCI  29
MACOMB*        CLOUDY    37  36  96 SE12      29.94S WCI  29
JACKSONVILLE*  CLOUDY    40  36  86 SE9       29.93S
PITTSFIELD*    PTSUNNY   40  38  92 E8        29.91F
$$

ILZ028>032-037-038-041>044-048-051>054-059>061-052200-
CENTRAL ILLINOIS

CITY           SKY/WX    TMP DP  RH WIND       PRES   REMARKS
PONTIAC        CLOUDY    33  33 100 S9        29.99F WCI  25
BLOOMINGTON    CLOUDY    33  32  96 SE8       29.96F WCI  26
DECATUR        CLOUDY    39  34  82 SE9       29.96S WCI  33
PEORIA         CLOUDY    36  34  92 SE8       29.97S WCI  30
LACON*         CLOUDY    33  32  96 S6        29.96F WCI  28
LINCOLN*       CLOUDY    38  36  92 E6        29.96S WCI  33
SPRINGFIELD    CLOUDY    40  36  86 SE8       29.95F
TAYLORVILLE    PTSUNNY   40  35  85 SE7       29.95F
$$

ILZ033-039-045-046-055>057-062-063-052200-
EAST-CENTRAL ILLINOIS

CITY           SKY/WX    TMP DP  RH WIND       PRES   REMARKS
CHAMPAIGN      PTSUNNY   38  34  85 E12       29.96F WCI  30
RANTOUL*       CLOUDY    39  36  90 E6        29.98F WCI  34
MATTOON        MOSUNNY   41  34  76 SE8       29.96F
PARIS*         SUNNY     42  36  79 E8        29.99F
$$

ILZ079-100>102-052200-
SOUTHWEST ILLINOIS

CITY           SKY/WX    TMP DP  RH WIND       PRES   REMARKS
ALTON          MOSUNNY   41  36  81 SE14      29.94F
BELLEVILLE     PTSUNNY   45  38  74 E7        29.92F
CAHOKIA*       MOSUNNY   45  36  70 E9        29.93F
SPARTA*        MOSUNNY   44  36  74 E10       29.94F
$$

ILZ064>066-069>071-074>076-080>082-084>086-088>090-092>094-052200-
SOUTH-CENTRAL ILLINOIS

CITY           SKY/WX    TMP DP  RH WIND       PRES   REMARKS
CARBONDALE     MOSUNNY   43  37  79 E12       29.94F
CAIRO*         CLOUDY    43  37  79 E10       29.93F
EFFINGHAM*     PTSUNNY   42  38  85 E7        29.98F
MARION         PTSUNNY   43  37  81 E9        29.95F
CENTRALIA*     CLOUDY    41  36  80 E8        29.94F
SALEM*         MOSUNNY   43  35  72 E7        29.95F
METROPOLIS*    CLOUDY    43  37  78 CALM      29.95F
$$

ILZ067-068-072-073-078-083-087-091-052200-
SOUTHEAST ILLINOIS

CITY           SKY/WX    TMP DP  RH WIND       PRES   REMARKS
LAWRENCEVILLE  MOSUNNY   42  35  76 SE8       30.00F
FLORA*         CLOUDY    41  36  81 SE9       29.98F
FAIRFIELD*     PTSUNNY   40  35  82 E6        29.97S
HARRISBURG*    CLOUDY    42  36  81 E9        29.96F
ROBINSON*      MOSUNNY   42  36  78 E7        30.01F
CARMI*         PTSUNNY   41  36  81 E9        29.98S
$$

ABBREVIATIONS USED IN REMARKS
   TC - TEMPERATURE IN CELSIUS
  WCI - WIND CHILL INDEX
   HX - HEAT INDEX
  VSB - VISIBILITY
$$




USA.gov is the U.S. government's official web portal to all federal, state and local government web resources and services.